Time,TemperatureF,DewpointF,PressureIn,WindDirection,WindDirectionDegrees,WindSpeedMPH,WindSpeedGustMPH,Humidity,HourlyPrecipIn,Conditions,Clouds,dailyrainin,SolarRadiationWatts/m^2,SoftwareType,DateUTC
2013-02-22 00:00:00,41.1,39.8,30.21,East,80,0.0,0.0,95,0.13,,,0.52,0,Wunderground v.1.15,2013-02-22 05:00:00,
2013-02-22 00:01:00,41.1,39.8,30.21,East,80,0.0,0.0,95,0.13,,,0.00,0,Wunderground v.1.15,2013-02-22 05:01:00,
2013-02-22 00:04:00,41.1,39.8,30.22,WNW,303,4.0,4.0,95,0.11,,,0.00,0,Wunderground v.1.15,2013-02-22 05:04:00,
2013-02-22 00:10:00,41.1,39.8,30.22,WNW,303,0.0,1.0,95,0.19,,,0.02,0,Wunderground v.1.15,2013-02-22 05:10:00,
2013-02-22 00:11:00,41.1,39.8,30.22,WNW,303,0.0,1.0,95,0.19,,,0.02,0,Wunderground v.1.15,2013-02-22 05:11:00,
2013-02-22 00:17:00,41.1,39.8,30.21,NE,41,1.0,1.0,95,0.21,,,0.04,0,Wunderground v.1.15,2013-02-22 05:17:00,
2013-02-22 00:23:00,41.0,39.9,30.21,NE,52,0.0,0.0,96,0.12,,,0.05,0,Wunderground v.1.15,2013-02-22 05:23:00,
2013-02-22 00:29:00,41.0,39.9,30.20,ENE,59,1.0,1.0,96,0.12,,,0.06,0,Wunderground v.1.15,2013-02-22 05:29:00,
2013-02-22 00:35:00,41.0,39.9,30.19,East,100,5.0,5.0,96,0.11,,,0.07,0,Wunderground v.1.15,2013-02-22 05:35:00,
2013-02-22 00:41:00,41.0,39.9,30.19,East,87,1.0,1.0,96,0.11,,,0.08,0,Wunderground v.1.15,2013-02-22 05:41:00,
2013-02-22 00:47:00,41.0,39.9,30.19,ESE,119,2.0,4.0,96,0.10,,,0.09,0,Wunderground v.1.15,2013-02-22 05:47:00,
2013-02-22 00:53:00,41.0,39.9,30.17,SE,124,2.0,4.0,96,0.08,,,0.10,0,Wunderground v.1.15,2013-02-22 05:53:00,
2013-02-22 00:59:00,41.0,39.9,30.17,SE,124,2.0,5.0,96,0.16,,,0.12,0,Wunderground v.1.15,2013-02-22 05:59:00,
2013-02-22 01:04:00,41.1,40.0,30.16,ESE,106,4.0,5.0,96,0.10,,,0.13,0,Wunderground v.1.15,2013-02-22 06:04:00,
2013-02-22 01:10:00,41.2,40.1,30.17,ESE,113,0.0,2.0,96,0.11,,,0.14,0,Wunderground v.1.15,2013-02-22 06:10:00,
2013-02-22 01:15:00,41.3,40.2,30.17,ENE,59,1.0,4.0,96,0.09,,,0.14,0,Wunderground v.1.15,2013-02-22 06:15:00,
2013-02-22 01:21:00,41.4,40.3,30.16,ENE,71,6.0,6.0,96,0.05,,,0.15,0,Wunderground v.1.15,2013-02-22 06:21:00,
2013-02-22 01:27:00,41.4,40.3,30.16,East,79,4.0,6.0,96,0.13,,,0.16,0,Wunderground v.1.15,2013-02-22 06:27:00,
2013-02-22 01:33:00,41.6,40.3,30.17,ESE,111,0.0,4.0,95,0.07,,,0.16,0,Wunderground v.1.15,2013-02-22 06:33:00,
2013-02-22 01:39:00,41.8,40.5,30.17,ESE,109,8.0,8.0,95,0.05,,,0.17,0,Wunderground v.1.15,2013-02-22 06:39:00,
2013-02-22 01:45:00,42.0,40.7,30.17,ENE,75,0.0,3.0,95,0.13,,,0.18,0,Wunderground v.1.15,2013-02-22 06:45:00,
2013-02-22 01:51:00,42.1,40.5,30.16,ESE,117,4.0,6.0,94,0.06,,,0.18,0,Wunderground v.1.15,2013-02-22 06:51:00,
2013-02-22 01:57:00,42.1,40.5,30.15,ESE,111,4.0,6.0,94,0.16,,,0.20,0,Wunderground v.1.15,2013-02-22 06:57:00,
2013-02-22 02:02:00,42.2,40.6,30.15,SE,134,1.0,8.0,94,0.09,,,0.20,0,Wunderground v.1.15,2013-02-22 07:02:00,
2013-02-22 02:07:00,42.3,40.4,30.16,SSE,149,1.0,8.0,93,0.07,,,0.21,0,Wunderground v.1.15,2013-02-22 07:07:00,
2013-02-22 02:12:00,42.3,40.4,30.16,ESE,102,0.0,5.0,93,0.08,,,0.22,0,Wunderground v.1.15,2013-02-22 07:12:00,
2013-02-22 02:17:00,42.4,40.5,30.17,ESE,105,0.0,6.0,93,0.08,,,0.22,0,Wunderground v.1.15,2013-02-22 07:17:00,
2013-02-22 02:22:00,42.4,40.5,30.16,SE,132,6.0,7.0,93,0.08,,,0.23,0,Wunderground v.1.15,2013-02-22 07:22:00,
2013-02-22 02:27:00,42.4,40.5,30.14,ESE,117,5.0,7.0,93,0.13,,,0.24,0,Wunderground v.1.15,2013-02-22 07:27:00,
2013-02-22 02:32:00,42.4,40.5,30.13,ESE,113,5.0,8.0,93,0.09,,,0.25,0,Wunderground v.1.15,2013-02-22 07:32:00,
2013-02-22 02:37:00,42.3,40.4,30.11,East,82,11.0,12.0,93,0.23,,,0.27,0,Wunderground v.1.15,2013-02-22 07:37:00,
2013-02-22 02:42:00,42.2,40.3,30.12,ESE,117,8.0,12.0,93,0.13,,,0.28,0,Wunderground v.1.15,2013-02-22 07:42:00,
2013-02-22 02:47:00,42.1,40.2,30.14,ESE,120,5.0,12.0,93,0.08,,,0.28,0,Wunderground v.1.15,2013-02-22 07:47:00,
2013-02-22 02:52:00,42.0,40.1,30.14,ENE,69,1.0,6.0,93,0.05,,,0.29,0,Wunderground v.1.15,2013-02-22 07:52:00,
2013-02-22 02:57:00,42.0,40.1,30.13,ESE,122,5.0,8.0,93,0.29,,,0.30,0,Wunderground v.1.15,2013-02-22 07:57:00,
2013-02-22 03:02:00,41.9,40.3,30.13,ESE,116,9.0,9.0,94,0.28,,,0.33,0,Wunderground v.1.15,2013-02-22 08:02:00,
2013-02-22 03:07:00,41.8,40.2,30.13,ESE,115,4.0,9.0,94,0.27,,,0.35,0,Wunderground v.1.15,2013-02-22 08:07:00,
2013-02-22 03:12:00,41.7,40.1,30.12,ENE,70,3.0,9.0,94,0.22,,,0.37,0,Wunderground v.1.15,2013-02-22 08:12:00,
2013-02-22 03:17:00,41.6,40.0,30.12,East,97,4.0,9.0,94,0.16,,,0.38,0,Wunderground v.1.15,2013-02-22 08:17:00,
2013-02-22 03:22:00,41.5,40.2,30.12,ESE,112,0.0,7.0,95,0.24,,,0.41,0,Wunderground v.1.15,2013-02-22 08:22:00,
2013-02-22 03:27:00,41.5,40.2,30.12,ENE,71,0.0,7.0,95,0.22,,,0.43,0,Wunderground v.1.15,2013-02-22 08:27:00,
2013-02-22 03:32:00,41.4,40.1,30.12,East,92,5.0,5.0,95,0.18,,,0.44,0,Wunderground v.1.15,2013-02-22 08:32:00,
2013-02-22 03:37:00,41.5,40.2,30.12,ENE,76,0.0,6.0,95,0.10,,,0.45,0,Wunderground v.1.15,2013-02-22 08:37:00,
2013-02-22 03:42:00,41.5,40.2,30.12,NNE,24,1.0,4.0,95,0.09,,,0.45,0,Wunderground v.1.15,2013-02-22 08:42:00,
2013-02-22 03:47:00,41.5,40.2,30.12,NE,46,0.0,7.0,95,0.08,,,0.46,0,Wunderground v.1.15,2013-02-22 08:47:00,
2013-02-22 03:52:00,41.5,40.4,30.13,ESE,121,1.0,4.0,96,0.07,,,0.46,0,Wunderground v.1.15,2013-02-22 08:52:00,
2013-02-22 03:58:00,41.4,40.3,30.13,ESE,115,0.0,6.0,96,0.07,,,0.47,0,Wunderground v.1.15,2013-02-22 08:58:00,
2013-02-22 04:03:00,41.4,40.3,30.14,ENE,78,0.0,3.0,96,0.08,,,0.48,0,Wunderground v.1.15,2013-02-22 09:03:00,
2013-02-22 04:13:00,41.4,40.3,30.13,East,80,0.0,0.0,96,0.07,,,0.49,0,Wunderground v.1.15,2013-02-22 09:13:00,
2013-02-22 04:23:00,41.4,40.3,30.14,NE,41,0.0,2.0,96,0.08,,,0.50,0,Wunderground v.1.15,2013-02-22 09:23:00,
2013-02-22 04:31:00,41.4,40.3,30.14,ESE,103,0.0,1.0,96,0.04,,,0.50,0,Wunderground v.1.15,2013-02-22 09:31:00,
2013-02-22 04:36:00,41.3,40.2,30.14,ENE,74,1.0,2.0,96,0.00,,,0.50,0,Wunderground v.1.15,2013-02-22 09:36:00,
2013-02-22 04:41:00,41.3,40.2,30.14,ENE,74,0.0,1.0,96,0.00,,,0.51,0,Wunderground v.1.15,2013-02-22 09:41:00,
2013-02-22 04:46:00,41.1,40.3,30.14,East,87,0.0,3.0,97,0.00,,,0.51,0,Wunderground v.1.15,2013-02-22 09:46:00,
2013-02-22 04:51:00,40.9,39.8,30.14,ENE,74,0.0,1.0,96,0.00,,,0.51,0,Wunderground v.1.15,2013-02-22 09:51:00,
2013-02-22 04:56:00,40.8,39.7,30.14,ENE,74,0.0,1.0,96,0.05,,,0.52,0,Wunderground v.1.15,2013-02-22 09:56:00,
2013-02-22 05:01:00,40.7,39.6,30.15,ENE,74,0.0,0.0,96,0.05,,,0.52,0,Wunderground v.1.15,2013-02-22 10:01:00,
2013-02-22 05:06:00,40.7,39.6,30.15,ENE,74,0.0,1.0,96,0.05,,,0.52,0,Wunderground v.1.15,2013-02-22 10:06:00,
2013-02-22 05:11:00,40.7,39.9,30.15,ENE,74,0.0,0.0,97,0.00,,,0.52,0,Wunderground v.1.15,2013-02-22 10:11:00,
2013-02-22 05:16:00,40.7,39.9,30.15,ENE,74,0.0,1.0,97,0.00,,,0.52,0,Wunderground v.1.15,2013-02-22 10:16:00,
2013-02-22 05:21:00,40.6,39.8,30.15,ESE,111,0.0,2.0,97,0.00,,,0.52,0,Wunderground v.1.15,2013-02-22 10:21:00,
2013-02-22 05:26:00,40.6,39.8,30.14,ENE,74,3.0,3.0,97,0.00,,,0.53,0,Wunderground v.1.15,2013-02-22 10:26:00,
2013-02-22 05:31:00,40.6,39.8,30.14,ENE,64,1.0,3.0,97,0.00,,,0.53,0,Wunderground v.1.15,2013-02-22 10:31:00,
2013-02-22 05:36:00,40.6,39.8,30.15,ESE,107,0.0,4.0,97,0.00,,,0.53,0,Wunderground v.1.15,2013-02-22 10:36:00,
2013-02-22 05:41:00,40.6,39.8,30.15,NE,48,0.0,3.0,97,0.00,,,0.53,0,Wunderground v.1.15,2013-02-22 10:41:00,
2013-02-22 05:46:00,40.6,39.8,30.15,ENE,67,1.0,4.0,97,0.00,,,0.53,0,Wunderground v.1.15,2013-02-22 10:46:00,
2013-02-22 05:51:00,40.6,39.8,30.15,NE,48,0.0,1.0,97,0.00,,,0.53,0,Wunderground v.1.15,2013-02-22 10:51:00,
2013-02-22 05:56:00,40.6,39.8,30.15,NE,51,0.0,2.0,97,0.00,,,0.53,0,Wunderground v.1.15,2013-02-22 10:56:00,
2013-02-22 06:01:00,40.5,39.7,30.15,ENE,65,0.0,1.0,97,0.00,,,0.53,0,Wunderground v.1.15,2013-02-22 11:01:00,
2013-02-22 06:06:00,40.5,39.7,30.16,ENE,65,0.0,1.0,97,0.00,,,0.53,0,Wunderground v.1.15,2013-02-22 11:06:00,
2013-02-22 06:11:00,40.5,39.7,30.16,ENE,65,0.0,0.0,97,0.00,,,0.53,0,Wunderground v.1.15,2013-02-22 11:11:00,
2013-02-22 06:16:00,40.5,39.7,30.16,ENE,65,0.0,1.0,97,0.00,,,0.53,0,Wunderground v.1.15,2013-02-22 11:16:00,
2013-02-22 06:21:00,40.5,39.7,30.15,ENE,65,0.0,1.0,97,0.00,,,0.53,0,Wunderground v.1.15,2013-02-22 11:21:00,
2013-02-22 06:27:00,40.4,39.6,30.15,ENE,65,0.0,2.0,97,0.00,,,0.53,0,Wunderground v.1.15,2013-02-22 11:27:00,
2013-02-22 06:32:00,40.4,39.6,30.15,ENE,73,0.0,0.0,97,0.00,,,0.53,0,Wunderground v.1.15,2013-02-22 11:32:00,
2013-02-22 06:37:00,40.4,39.6,30.14,ENE,73,0.0,1.0,97,0.00,,,0.53,0,Wunderground v.1.15,2013-02-22 11:37:00,
2013-02-22 06:42:00,40.5,39.7,30.14,ENE,73,0.0,0.0,97,0.00,,,0.53,0,Wunderground v.1.15,2013-02-22 11:42:00,
2013-02-22 06:47:00,40.4,39.6,30.14,ENE,73,0.0,1.0,97,0.00,,,0.53,0,Wunderground v.1.15,2013-02-22 11:47:00,
2013-02-22 06:52:00,40.4,39.6,30.14,ENE,73,0.0,0.0,97,0.00,,,0.53,0,Wunderground v.1.15,2013-02-22 11:52:00,
2013-02-22 06:57:00,40.3,39.5,30.14,ENE,73,0.0,1.0,97,0.00,,,0.53,0,Wunderground v.1.15,2013-02-22 11:57:00,
2013-02-22 07:02:00,40.2,39.4,30.13,East,86,1.0,1.0,97,0.00,,,0.53,0,Wunderground v.1.15,2013-02-22 12:02:00,
2013-02-22 07:07:00,40.1,39.1,30.14,ENE,71,1.0,3.0,96,0.00,,,0.53,0,Wunderground v.1.15,2013-02-22 12:07:00,
2013-02-22 07:12:00,40.1,39.1,30.13,East,86,0.0,2.0,96,0.00,,,0.53,0,Wunderground v.1.15,2013-02-22 12:12:00,
2013-02-22 07:17:00,40.1,39.1,30.13,ESE,111,0.0,4.0,96,0.00,,,0.53,0,Wunderground v.1.15,2013-02-22 12:17:00,
2013-02-22 07:22:00,40.1,39.1,30.14,ESE,115,0.0,6.0,96,0.00,,,0.53,0,Wunderground v.1.15,2013-02-22 12:22:00,
2013-02-22 07:27:00,40.0,39.0,30.14,ESE,107,1.0,6.0,96,0.00,,,0.53,5,Wunderground v.1.15,2013-02-22 12:27:00,
2013-02-22 07:32:00,40.1,38.8,30.14,ENE,78,2.0,2.0,95,0.00,,,0.53,5,Wunderground v.1.15,2013-02-22 12:32:00,
2013-02-22 07:37:00,40.1,38.8,30.15,SE,126,2.0,5.0,95,0.00,,,0.53,9,Wunderground v.1.15,2013-02-22 12:37:00,
2013-02-22 07:42:00,40.1,38.8,30.15,East,99,0.0,1.0,95,0.00,,,0.53,9,Wunderground v.1.15,2013-02-22 12:42:00,
2013-02-22 07:47:00,40.2,38.9,30.15,East,85,0.0,4.0,95,0.00,,,0.53,12,Wunderground v.1.15,2013-02-22 12:47:00,
2013-02-22 07:52:00,40.2,38.9,30.15,East,82,0.0,1.0,95,0.00,,,0.53,12,Wunderground v.1.15,2013-02-22 12:52:00,
2013-02-22 07:57:00,40.2,38.9,30.15,East,82,0.0,1.0,95,0.00,,,0.53,12,Wunderground v.1.15,2013-02-22 12:57:00,
2013-02-22 08:02:00,40.3,39.0,30.15,East,82,0.0,1.0,95,0.00,,,0.53,18,Wunderground v.1.15,2013-02-22 13:02:00,
2013-02-22 08:07:00,40.4,39.1,30.15,East,82,1.0,1.0,95,0.00,,,0.53,19,Wunderground v.1.15,2013-02-22 13:07:00,
2013-02-22 08:12:00,40.4,39.1,30.15,ENE,74,0.0,3.0,95,0.00,,,0.53,19,Wunderground v.1.15,2013-02-22 13:12:00,
2013-02-22 08:17:00,40.5,39.2,30.15,East,86,0.0,3.0,95,0.00,,,0.53,30,Wunderground v.1.15,2013-02-22 13:17:00,
2013-02-22 08:22:00,40.5,39.2,30.16,ENE,78,0.0,1.0,95,0.00,,,0.53,33,Wunderground v.1.15,2013-02-22 13:22:00,
2013-02-22 08:27:00,40.6,39.3,30.16,East,86,0.0,4.0,95,0.00,,,0.53,32,Wunderground v.1.15,2013-02-22 13:27:00,
2013-02-22 08:32:00,40.7,39.4,30.16,ENE,78,0.0,1.0,95,0.00,,,0.53,35,Wunderground v.1.15,2013-02-22 13:32:00,
2013-02-22 08:37:00,40.8,39.5,30.16,East,79,0.0,2.0,95,0.00,,,0.53,49,Wunderground v.1.15,2013-02-22 13:37:00,
2013-02-22 08:42:00,41.0,39.7,30.16,ENE,63,3.0,5.0,95,0.00,,,0.53,49,Wunderground v.1.15,2013-02-22 13:42:00,
2013-02-22 08:47:00,41.2,39.9,30.16,ENE,73,0.0,5.0,95,0.00,,,0.53,42,Wunderground v.1.15,2013-02-22 13:47:00,
2013-02-22 08:52:00,41.3,39.7,30.16,ENE,74,0.0,2.0,94,0.00,,,0.53,37,Wunderground v.1.15,2013-02-22 13:52:00,
2013-02-22 08:57:00,41.5,39.9,30.16,ENE,76,0.0,2.0,94,0.00,,,0.53,77,Wunderground v.1.15,2013-02-22 13:57:00,
2013-02-22 09:02:00,41.5,39.9,30.16,ENE,65,2.0,4.0,94,0.00,,,0.53,70,Wunderground v.1.15,2013-02-22 14:02:00,
2013-02-22 09:07:00,41.7,40.1,30.15,ENE,71,4.0,5.0,94,0.00,,,0.53,83,Wunderground v.1.15,2013-02-22 14:07:00,
2013-02-22 09:12:00,41.9,40.3,30.16,East,94,2.0,6.0,94,0.00,,,0.53,76,Wunderground v.1.15,2013-02-22 14:12:00,
2013-02-22 09:17:00,42.1,40.5,30.16,ENE,72,2.0,6.0,94,0.00,,,0.53,63,Wunderground v.1.15,2013-02-22 14:17:00,
2013-02-22 09:22:00,42.2,40.6,30.16,NE,42,1.0,3.0,94,0.00,,,0.53,77,Wunderground v.1.15,2013-02-22 14:22:00,
2013-02-22 09:27:00,42.2,40.3,30.16,NE,42,1.0,3.0,93,0.00,,,0.53,54,Wunderground v.1.15,2013-02-22 14:27:00,
2013-02-22 09:32:00,42.3,40.4,30.16,NE,43,2.0,2.0,93,0.00,,,0.53,67,Wunderground v.1.15,2013-02-22 14:32:00,
2013-02-22 09:37:00,42.4,40.5,30.16,NE,46,0.0,3.0,93,0.00,,,0.53,60,Wunderground v.1.15,2013-02-22 14:37:00,
2013-02-22 09:42:00,42.4,40.5,30.16,NE,46,0.0,1.0,93,0.00,,,0.53,62,Wunderground v.1.15,2013-02-22 14:42:00,
2013-02-22 09:47:00,42.5,40.6,30.15,NE,46,0.0,1.0,93,0.00,,,0.53,76,Wunderground v.1.15,2013-02-22 14:47:00,
2013-02-22 09:52:00,42.5,40.3,30.15,NE,46,0.0,1.0,92,0.00,,,0.53,81,Wunderground v.1.15,2013-02-22 14:52:00,
2013-02-22 09:58:00,42.5,40.3,30.15,NE,39,0.0,3.0,92,0.00,,,0.53,83,Wunderground v.1.15,2013-02-22 14:58:00,
2013-02-22 10:03:00,42.5,40.1,30.15,NE,53,0.0,2.0,91,0.00,,,0.53,81,Wunderground v.1.15,2013-02-22 15:03:00,
2013-02-22 10:08:00,42.6,40.2,30.15,NE,53,0.0,2.0,91,0.00,,,0.53,81,Wunderground v.1.15,2013-02-22 15:08:00,
2013-02-22 10:13:00,42.7,40.0,30.15,NE,53,0.0,2.0,90,0.00,,,0.53,81,Wunderground v.1.15,2013-02-22 15:13:00,
2013-02-22 10:18:00,42.7,40.0,30.15,NE,53,0.0,3.0,90,0.00,,,0.53,83,Wunderground v.1.15,2013-02-22 15:18:00,
2013-02-22 10:23:00,42.8,40.1,30.15,NE,53,0.0,1.0,90,0.00,,,0.53,88,Wunderground v.1.15,2013-02-22 15:23:00,
2013-02-22 10:28:00,42.9,40.5,30.14,NE,55,0.0,1.0,91,0.00,,,0.53,97,Wunderground v.1.15,2013-02-22 15:28:00,
2013-02-22 10:33:00,43.0,40.6,30.14,ENE,65,0.0,3.0,91,0.00,,,0.53,137,Wunderground v.1.15,2013-02-22 15:33:00,
2013-02-22 10:38:00,43.3,40.8,30.14,ENE,65,0.0,3.0,91,0.00,,,0.53,158,Wunderground v.1.15,2013-02-22 15:38:00,
2013-02-22 10:43:00,43.5,41.0,30.14,ESE,114,2.0,2.0,91,0.00,,,0.53,146,Wunderground v.1.15,2013-02-22 15:43:00,
2013-02-22 10:48:00,43.5,40.8,30.14,ESE,107,0.0,5.0,90,0.00,,,0.53,144,Wunderground v.1.15,2013-02-22 15:48:00,
2013-02-22 10:53:00,43.7,41.0,30.15,ESE,107,0.0,1.0,90,0.00,,,0.53,135,Wunderground v.1.15,2013-02-22 15:53:00,
2013-02-22 10:58:00,43.6,40.9,30.14,ENE,72,3.0,5.0,90,0.00,,,0.53,179,Wunderground v.1.15,2013-02-22 15:58:00,
2013-02-22 11:03:00,43.8,41.1,30.14,East,93,0.0,2.0,90,0.00,,,0.53,155,Wunderground v.1.15,2013-02-22 16:03:00,
2013-02-22 11:08:00,44.0,41.0,30.14,ENE,75,1.0,3.0,89,0.00,,,0.53,211,Wunderground v.1.15,2013-02-22 16:08:00,
2013-02-22 11:13:00,44.1,41.1,30.14,ENE,69,0.0,2.0,89,0.00,,,0.53,188,Wunderground v.1.15,2013-02-22 16:13:00,
2013-02-22 11:18:00,44.3,41.3,30.14,East,83,0.0,4.0,89,0.00,,,0.53,146,Wunderground v.1.15,2013-02-22 16:18:00,
2013-02-22 11:23:00,44.4,41.4,30.15,ENE,63,0.0,3.0,89,0.00,,,0.53,139,Wunderground v.1.15,2013-02-22 16:23:00,
2013-02-22 11:28:00,44.5,41.2,30.15,ENE,64,0.0,3.0,88,0.00,,,0.53,132,Wunderground v.1.15,2013-02-22 16:28:00,
2013-02-22 11:33:00,44.6,41.3,30.15,ENE,64,0.0,1.0,88,0.00,,,0.53,114,Wunderground v.1.15,2013-02-22 16:33:00,
2013-02-22 11:38:00,44.5,41.2,30.16,ENE,67,0.0,2.0,88,0.00,,,0.53,116,Wunderground v.1.15,2013-02-22 16:38:00,
2013-02-22 11:44:00,44.6,41.3,30.16,ENE,68,0.0,2.0,88,0.00,,,0.53,127,Wunderground v.1.15,2013-02-22 16:44:00,
2013-02-22 11:49:00,44.8,41.5,30.16,ENE,68,0.0,2.0,88,0.00,,,0.53,144,Wunderground v.1.15,2013-02-22 16:49:00,
2013-02-22 11:54:00,45.0,41.7,30.15,ENE,68,0.0,1.0,88,0.00,,,0.53,135,Wunderground v.1.15,2013-02-22 16:54:00,
2013-02-22 11:59:00,45.3,42.0,30.15,ENE,68,0.0,1.0,88,0.00,,,0.53,125,Wunderground v.1.15,2013-02-22 16:59:00,
2013-02-22 12:04:00,45.5,42.2,30.15,ENE,68,0.0,1.0,88,0.00,,,0.53,116,Wunderground v.1.15,2013-02-22 17:04:00,
2013-02-22 12:09:00,45.7,42.3,30.15,East,99,0.0,2.0,88,0.00,,,0.53,114,Wunderground v.1.15,2013-02-22 17:09:00,
2013-02-22 12:14:00,45.9,42.5,30.15,East,99,0.0,1.0,88,0.00,,,0.53,134,Wunderground v.1.15,2013-02-22 17:14:00,
2013-02-22 12:19:00,46.1,42.7,30.15,East,99,0.0,1.0,88,0.00,,,0.53,137,Wunderground v.1.15,2013-02-22 17:19:00,
2013-02-22 12:24:00,46.3,43.2,30.15,East,99,0.0,1.0,89,0.00,,,0.53,128,Wunderground v.1.15,2013-02-22 17:24:00,
2013-02-22 12:29:00,46.6,43.2,30.15,ESE,120,0.0,6.0,88,0.00,,,0.53,137,Wunderground v.1.15,2013-02-22 17:29:00,
2013-02-22 12:34:00,47.0,43.6,30.15,ESE,119,4.0,5.0,88,0.00,,,0.53,149,Wunderground v.1.15,2013-02-22 17:34:00,
2013-02-22 12:39:00,47.2,43.5,30.15,East,86,1.0,7.0,87,0.00,,,0.53,142,Wunderground v.1.15,2013-02-22 17:39:00,
2013-02-22 12:44:00,47.3,43.6,30.14,ESE,104,6.0,6.0,87,0.00,,,0.53,153,Wunderground v.1.15,2013-02-22 17:44:00,
2013-02-22 12:49:00,47.3,43.6,30.14,ESE,119,2.0,7.0,87,0.00,,,0.53,132,Wunderground v.1.15,2013-02-22 17:49:00,
2013-02-22 12:54:00,47.3,43.6,30.14,ESE,119,6.0,8.0,87,0.00,,,0.53,137,Wunderground v.1.15,2013-02-22 17:54:00,
2013-02-22 12:59:00,47.2,43.5,30.14,ESE,113,0.0,8.0,87,0.00,,,0.53,169,Wunderground v.1.15,2013-02-22 17:59:00,
2013-02-22 13:04:00,47.2,43.5,30.13,ESE,123,0.0,6.0,87,0.00,,,0.53,211,Wunderground v.1.15,2013-02-22 18:04:00,
2013-02-22 13:09:00,47.5,43.8,30.13,SE,141,0.0,6.0,87,0.00,,,0.53,188,Wunderground v.1.15,2013-02-22 18:09:00,
2013-02-22 13:14:00,47.4,43.4,30.14,SE,128,6.0,12.0,86,0.00,,,0.53,207,Wunderground v.1.15,2013-02-22 18:14:00,
2013-02-22 13:19:00,47.5,43.8,30.13,SE,132,6.0,12.0,87,0.00,,,0.53,185,Wunderground v.1.15,2013-02-22 18:19:00,
2013-02-22 13:24:00,47.3,43.3,30.13,SSE,149,7.0,12.0,86,0.00,,,0.53,178,Wunderground v.1.15,2013-02-22 18:24:00,
2013-02-22 13:29:00,47.4,43.4,30.13,East,96,6.0,12.0,86,0.00,,,0.53,156,Wunderground v.1.15,2013-02-22 18:29:00,
2013-02-22 13:34:00,47.3,43.3,30.13,SE,138,5.0,11.0,86,0.00,,,0.53,160,Wunderground v.1.15,2013-02-22 18:34:00,
2013-02-22 13:39:00,47.4,43.7,30.13,SE,129,5.0,11.0,87,0.00,,,0.53,156,Wunderground v.1.15,2013-02-22 18:39:00,
2013-02-22 13:44:00,47.4,43.4,30.12,SE,140,5.0,7.0,86,0.00,,,0.53,179,Wunderground v.1.15,2013-02-22 18:44:00,
2013-02-22 13:49:00,47.6,43.6,30.13,SE,135,7.0,9.0,86,0.00,,,0.53,146,Wunderground v.1.15,2013-02-22 18:49:00,
2013-02-22 13:54:00,47.8,44.1,30.12,SSE,153,2.0,7.0,87,0.00,,,0.53,153,Wunderground v.1.15,2013-02-22 18:54:00,
2013-02-22 13:59:00,47.8,43.8,30.12,SE,140,5.0,8.0,86,0.00,,,0.53,144,Wunderground v.1.15,2013-02-22 18:59:00,
2013-02-22 14:04:00,47.9,43.9,30.12,SSE,156,5.0,8.0,86,0.00,,,0.53,149,Wunderground v.1.15,2013-02-22 19:04:00,
2013-02-22 14:09:00,48.0,44.0,30.11,ESE,115,2.0,8.0,86,0.00,,,0.53,156,Wunderground v.1.15,2013-02-22 19:09:00,
2013-02-22 14:14:00,48.1,44.1,30.11,ESE,108,0.0,7.0,86,0.00,,,0.53,155,Wunderground v.1.15,2013-02-22 19:14:00,
2013-02-22 14:19:00,48.2,44.2,30.11,SE,142,5.0,8.0,86,0.00,,,0.53,141,Wunderground v.1.15,2013-02-22 19:19:00,
2013-02-22 14:24:00,48.3,44.3,30.11,SE,136,0.0,6.0,86,0.00,,,0.53,135,Wunderground v.1.15,2013-02-22 19:24:00,
2013-02-22 14:29:00,48.5,44.2,30.11,SE,126,5.0,9.0,85,0.00,,,0.53,121,Wunderground v.1.15,2013-02-22 19:29:00,
2013-02-22 14:34:00,48.5,44.2,30.10,East,96,2.0,8.0,85,0.00,,,0.53,130,Wunderground v.1.15,2013-02-22 19:34:00,
2013-02-22 14:39:00,48.5,44.5,30.10,ENE,67,3.0,9.0,86,0.00,,,0.53,132,Wunderground v.1.15,2013-02-22 19:39:00,
2013-02-22 14:44:00,48.6,44.3,30.10,ESE,109,4.0,6.0,85,0.00,,,0.53,121,Wunderground v.1.15,2013-02-22 19:44:00,
2013-02-22 14:49:00,48.6,44.6,30.10,ESE,110,0.0,6.0,86,0.00,,,0.53,132,Wunderground v.1.15,2013-02-22 19:49:00,
2013-02-22 14:54:00,48.6,44.6,30.10,ESE,110,0.0,1.0,86,0.00,,,0.53,109,Wunderground v.1.15,2013-02-22 19:54:00,
2013-02-22 14:59:00,48.4,44.1,30.10,ESE,110,0.0,1.0,85,0.00,,,0.53,121,Wunderground v.1.15,2013-02-22 19:59:00,
2013-02-22 15:04:00,48.4,44.1,30.10,ESE,110,0.0,1.0,85,0.00,,,0.53,116,Wunderground v.1.15,2013-02-22 20:04:00,
2013-02-22 15:09:00,48.4,44.1,30.10,ESE,110,0.0,1.0,85,0.00,,,0.53,118,Wunderground v.1.15,2013-02-22 20:09:00,
2013-02-22 15:14:00,48.3,44.0,30.10,ESE,109,0.0,0.0,85,0.00,,,0.53,97,Wunderground v.1.15,2013-02-22 20:14:00,
2013-02-22 15:19:00,48.4,44.4,30.10,ESE,111,2.0,5.0,86,0.00,,,0.53,109,Wunderground v.1.15,2013-02-22 20:19:00,
2013-02-22 15:24:00,48.5,44.5,30.10,SE,134,1.0,5.0,86,0.00,,,0.53,116,Wunderground v.1.15,2013-02-22 20:24:00,
2013-02-22 15:29:00,48.5,44.5,30.10,SSE,151,4.0,6.0,86,0.00,,,0.53,111,Wunderground v.1.15,2013-02-22 20:29:00,
2013-02-22 15:34:00,48.4,44.4,30.10,SE,129,0.0,2.0,86,0.00,,,0.53,137,Wunderground v.1.15,2013-02-22 20:34:00,
2013-02-22 15:39:00,48.6,44.6,30.10,SE,129,0.0,2.0,86,0.00,,,0.53,118,Wunderground v.1.15,2013-02-22 20:39:00,
2013-02-22 15:44:00,48.7,44.7,30.10,SE,126,0.0,2.0,86,0.00,,,0.53,111,Wunderground v.1.15,2013-02-22 20:44:00,
2013-02-22 15:49:00,48.7,44.7,30.10,SE,126,0.0,2.0,86,0.00,,,0.53,109,Wunderground v.1.15,2013-02-22 20:49:00,
2013-02-22 15:54:00,48.7,44.7,30.09,SE,126,0.0,0.0,86,0.00,,,0.53,132,Wunderground v.1.15,2013-02-22 20:54:00,
2013-02-22 15:59:00,49.0,45.0,30.09,SE,126,0.0,0.0,86,0.00,,,0.53,148,Wunderground v.1.15,2013-02-22 20:59:00,
2013-02-22 16:05:00,49.1,44.8,30.09,SE,126,0.0,2.0,85,0.00,,,0.53,98,Wunderground v.1.15,2013-02-22 21:05:00,
2013-02-22 16:10:00,49.1,44.8,30.09,East,85,0.0,0.0,85,0.00,,,0.53,107,Wunderground v.1.15,2013-02-22 21:10:00,
2013-02-22 16:15:00,49.1,45.1,30.08,SE,132,4.0,6.0,86,0.00,,,0.53,95,Wunderground v.1.15,2013-02-22 21:15:00,
2013-02-22 16:20:00,49.0,45.0,30.08,SE,142,1.0,2.0,86,0.00,,,0.53,83,Wunderground v.1.15,2013-02-22 21:20:00,
2013-02-22 16:25:00,48.9,44.9,30.08,ESE,105,0.0,4.0,86,0.00,,,0.53,84,Wunderground v.1.15,2013-02-22 21:25:00,
2013-02-22 16:30:00,48.8,44.8,30.08,SE,133,2.0,2.0,86,0.00,,,0.53,81,Wunderground v.1.15,2013-02-22 21:30:00,
2013-02-22 16:35:00,49.0,45.0,30.08,ESE,117,2.0,5.0,86,0.00,,,0.53,88,Wunderground v.1.15,2013-02-22 21:35:00,
2013-02-22 16:40:00,49.0,45.3,30.08,SE,124,0.0,2.0,87,0.00,,,0.53,86,Wunderground v.1.15,2013-02-22 21:40:00,
2013-02-22 16:45:00,49.1,45.1,30.08,SE,138,1.0,2.0,86,0.00,,,0.53,91,Wunderground v.1.15,2013-02-22 21:45:00,
2013-02-22 16:50:00,49.1,45.1,30.08,SE,134,1.0,2.0,86,0.00,,,0.53,79,Wunderground v.1.15,2013-02-22 21:50:00,
2013-02-22 16:55:00,49.1,45.1,30.08,ESE,123,2.0,2.0,86,0.00,,,0.53,76,Wunderground v.1.15,2013-02-22 21:55:00,
2013-02-22 17:00:00,49.0,45.0,30.08,ESE,120,1.0,4.0,86,0.00,,,0.53,56,Wunderground v.1.15,2013-02-22 22:00:00,
2013-02-22 17:05:00,49.0,45.0,30.08,SE,128,0.0,4.0,86,0.00,,,0.53,47,Wunderground v.1.15,2013-02-22 22:05:00,
2013-02-22 17:11:00,49.0,45.3,30.08,SE,128,0.0,1.0,87,0.00,,,0.53,53,Wunderground v.1.15,2013-02-22 22:11:00,
2013-02-22 17:16:00,49.0,45.3,30.08,SE,128,0.0,2.0,87,0.00,,,0.53,72,Wunderground v.1.15,2013-02-22 22:16:00,
2013-02-22 17:21:00,48.9,45.2,30.08,SE,144,0.0,2.0,87,0.00,,,0.53,35,Wunderground v.1.15,2013-02-22 22:21:00,
2013-02-22 17:26:00,48.8,45.1,30.08,SSE,147,4.0,4.0,87,0.00,,,0.53,33,Wunderground v.1.15,2013-02-22 22:26:00,
2013-02-22 17:31:00,48.7,45.0,30.08,SSE,150,2.0,2.0,87,0.00,,,0.53,26,Wunderground v.1.15,2013-02-22 22:31:00,
2013-02-22 17:36:00,48.6,44.9,30.09,SSE,149,0.0,4.0,87,0.00,,,0.53,23,Wunderground v.1.15,2013-02-22 22:36:00,
2013-02-22 17:41:00,48.5,44.8,30.08,SE,140,0.0,4.0,87,0.00,,,0.53,25,Wunderground v.1.15,2013-02-22 22:41:00,
2013-02-22 17:46:00,48.4,45.0,30.08,ESE,123,1.0,4.0,88,0.00,,,0.53,16,Wunderground v.1.15,2013-02-22 22:46:00,
2013-02-22 17:51:00,48.3,44.9,30.08,SE,141,0.0,2.0,88,0.00,,,0.53,11,Wunderground v.1.15,2013-02-22 22:51:00,
2013-02-22 17:56:00,48.2,44.8,30.08,SE,141,0.0,2.0,88,0.00,,,0.53,9,Wunderground v.1.15,2013-02-22 22:56:00,
2013-02-22 18:01:00,48.2,44.8,30.08,ESE,109,2.0,2.0,88,0.00,,,0.53,11,Wunderground v.1.15,2013-02-22 23:01:00,
2013-02-22 18:07:00,48.1,44.7,30.08,ESE,109,2.0,2.0,88,0.00,,,0.53,7,Wunderground v.1.15,2013-02-22 23:07:00,
2013-02-22 18:12:00,48.0,44.6,30.09,ESE,109,0.0,2.0,88,0.00,,,0.53,5,Wunderground v.1.15,2013-02-22 23:12:00,
2013-02-22 18:17:00,48.0,44.6,30.09,ESE,109,0.0,2.0,88,0.00,,,0.53,0,Wunderground v.1.15,2013-02-22 23:17:00,
2013-02-22 18:22:00,47.9,44.8,30.09,ESE,109,0.0,1.0,89,0.00,,,0.53,0,Wunderground v.1.15,2013-02-22 23:22:00,
2013-02-22 18:27:00,47.8,44.7,30.09,ESE,109,0.0,4.0,89,0.00,,,0.53,0,Wunderground v.1.15,2013-02-22 23:27:00,
2013-02-22 18:32:00,47.7,44.6,30.10,ESE,109,0.0,2.0,89,0.00,,,0.53,0,Wunderground v.1.15,2013-02-22 23:32:00,
2013-02-22 18:37:00,47.8,44.7,30.10,ESE,109,0.0,2.0,89,0.00,,,0.53,0,Wunderground v.1.15,2013-02-22 23:37:00,
2013-02-22 18:42:00,47.7,44.6,30.10,ESE,109,0.0,0.0,89,0.00,,,0.53,0,Wunderground v.1.15,2013-02-22 23:42:00,
2013-02-22 18:47:00,47.7,44.6,30.10,ESE,109,0.0,0.0,89,0.00,,,0.53,0,Wunderground v.1.15,2013-02-22 23:47:00,
2013-02-22 18:52:00,47.6,44.8,30.10,ESE,109,0.0,0.0,90,0.00,,,0.53,0,Wunderground v.1.15,2013-02-22 23:52:00,
2013-02-22 18:57:00,47.5,44.7,30.10,ESE,109,0.0,2.0,90,0.00,,,0.53,0,Wunderground v.1.15,2013-02-22 23:57:00,
2013-02-22 19:02:00,47.5,44.7,30.10,ESE,109,1.0,1.0,90,0.00,,,0.53,0,Wunderground v.1.15,2013-02-23 00:02:00,
2013-02-22 19:07:00,47.4,44.6,30.10,ESE,109,0.0,1.0,90,0.00,,,0.53,0,Wunderground v.1.15,2013-02-23 00:07:00,
2013-02-22 19:12:00,47.4,44.6,30.11,ESE,109,0.0,0.0,90,0.00,,,0.53,0,Wunderground v.1.15,2013-02-23 00:12:00,
2013-02-22 19:17:00,47.3,44.5,30.11,ESE,109,0.0,1.0,90,0.00,,,0.53,0,Wunderground v.1.15,2013-02-23 00:17:00,
2013-02-22 19:22:00,47.2,44.4,30.11,ESE,109,0.0,1.0,90,0.00,,,0.53,0,Wunderground v.1.15,2013-02-23 00:22:00,
2013-02-22 19:27:00,47.1,44.3,30.11,ESE,109,0.0,5.0,90,0.00,,,0.53,0,Wunderground v.1.15,2013-02-23 00:27:00,
2013-02-22 19:32:00,47.0,44.2,30.11,SE,134,2.0,4.0,90,0.00,,,0.53,0,Wunderground v.1.15,2013-02-23 00:32:00,
2013-02-22 19:37:00,47.0,44.5,30.12,SSE,152,2.0,5.0,91,0.00,,,0.53,0,Wunderground v.1.15,2013-02-23 00:37:00,
2013-02-22 19:42:00,46.9,44.4,30.11,SSE,163,5.0,6.0,91,0.00,,,0.53,0,Wunderground v.1.15,2013-02-23 00:42:00,
2013-02-22 19:47:00,46.9,44.4,30.11,SSE,148,0.0,6.0,91,0.00,,,0.53,0,Wunderground v.1.15,2013-02-23 00:47:00,
2013-02-22 19:52:00,46.8,44.3,30.11,SE,142,0.0,4.0,91,0.00,,,0.53,0,Wunderground v.1.15,2013-02-23 00:52:00,
2013-02-22 19:57:00,46.8,44.3,30.11,ESE,116,0.0,4.0,91,0.00,,,0.53,0,Wunderground v.1.15,2013-02-23 00:57:00,
2013-02-22 20:03:00,46.8,44.3,30.11,ESE,113,0.0,5.0,91,0.00,,,0.53,0,Wunderground v.1.15,2013-02-23 01:03:00,
2013-02-22 20:08:00,46.7,44.2,30.11,SSE,168,0.0,5.0,91,0.00,,,0.53,0,Wunderground v.1.15,2013-02-23 01:08:00,
2013-02-22 20:13:00,46.7,44.2,30.11,ESE,111,0.0,1.0,91,0.00,,,0.53,0,Wunderground v.1.15,2013-02-23 01:13:00,
2013-02-22 20:18:00,46.7,44.2,30.10,ESE,111,0.0,1.0,91,0.00,,,0.53,0,Wunderground v.1.15,2013-02-23 01:18:00,
2013-02-22 20:23:00,46.6,44.4,30.10,ESE,116,0.0,2.0,92,0.00,,,0.53,0,Wunderground v.1.15,2013-02-23 01:23:00,
2013-02-22 20:28:00,46.5,44.3,30.10,ESE,116,0.0,2.0,92,0.00,,,0.53,0,Wunderground v.1.15,2013-02-23 01:28:00,
2013-02-22 20:33:00,46.5,44.3,30.11,ESE,117,0.0,2.0,92,0.00,,,0.53,0,Wunderground v.1.15,2013-02-23 01:33:00,
2013-02-22 20:38:00,46.5,44.3,30.10,ESE,117,0.0,2.0,92,0.00,,,0.53,0,Wunderground v.1.15,2013-02-23 01:38:00,
2013-02-22 20:43:00,46.4,44.2,30.10,ESE,116,0.0,1.0,92,0.00,,,0.53,0,Wunderground v.1.15,2013-02-23 01:43:00,
2013-02-22 20:48:00,46.4,44.2,30.09,ESE,109,0.0,4.0,92,0.00,,,0.53,0,Wunderground v.1.15,2013-02-23 01:48:00,
2013-02-22 20:53:00,46.3,44.4,30.08,ESE,107,0.0,5.0,93,0.00,,,0.53,0,Wunderground v.1.15,2013-02-23 01:53:00,
2013-02-22 20:58:00,46.3,44.4,30.08,ESE,107,0.0,5.0,93,0.00,,,0.53,0,Wunderground v.1.15,2013-02-23 01:58:00,
2013-02-22 21:03:00,46.3,44.4,30.07,ESE,113,1.0,4.0,93,0.00,,,0.53,0,Wunderground v.1.15,2013-02-23 02:03:00,
2013-02-22 21:08:00,46.2,44.3,30.07,ESE,113,0.0,4.0,93,0.00,,,0.53,0,Wunderground v.1.15,2013-02-23 02:08:00,
2013-02-22 21:13:00,46.3,44.4,30.07,ESE,113,0.0,1.0,93,0.00,,,0.53,0,Wunderground v.1.15,2013-02-23 02:13:00,
2013-02-22 21:18:00,46.3,44.4,30.07,ESE,113,0.0,1.0,93,0.00,,,0.53,0,Wunderground v.1.15,2013-02-23 02:18:00,
2013-02-22 21:23:00,46.2,44.3,30.08,ESE,113,0.0,0.0,93,0.00,,,0.53,0,Wunderground v.1.15,2013-02-23 02:23:00,
2013-02-22 21:28:00,46.2,44.3,30.08,ESE,113,0.0,0.0,93,0.00,,,0.53,0,Wunderground v.1.15,2013-02-23 02:28:00,
2013-02-22 21:33:00,46.1,44.5,30.08,ESE,113,0.0,0.0,94,0.00,,,0.53,0,Wunderground v.1.15,2013-02-23 02:33:00,
2013-02-22 21:38:00,46.1,44.5,30.07,ESE,113,0.0,1.0,94,0.00,,,0.53,0,Wunderground v.1.15,2013-02-23 02:38:00,
2013-02-22 21:43:00,46.1,44.5,30.08,ESE,113,0.0,0.0,94,0.00,,,0.53,0,Wunderground v.1.15,2013-02-23 02:43:00,
2013-02-22 21:48:00,46.1,44.5,30.07,ESE,113,1.0,4.0,94,0.00,,,0.53,0,Wunderground v.1.15,2013-02-23 02:48:00,
2013-02-22 21:53:00,46.1,44.5,30.06,SE,140,4.0,5.0,94,0.00,,,0.53,0,Wunderground v.1.15,2013-02-23 02:53:00,
2013-02-22 21:58:00,46.2,44.6,30.08,NW,324,3.0,5.0,94,0.00,,,0.53,0,Wunderground v.1.15,2013-02-23 02:58:00,
2013-02-22 22:03:00,46.1,44.5,30.08,NNW,330,2.0,5.0,94,0.00,,,0.53,0,Wunderground v.1.15,2013-02-23 03:03:00,
2013-02-22 22:08:00,46.1,44.5,30.08,NNW,338,3.0,5.0,94,0.00,,,0.53,0,Wunderground v.1.15,2013-02-23 03:08:00,
2013-02-22 22:13:00,46.0,44.4,30.09,NW,316,0.0,3.0,94,0.00,,,0.53,0,Wunderground v.1.15,2013-02-23 03:13:00,
2013-02-22 22:18:00,45.9,44.3,30.10,NW,315,0.0,3.0,94,0.00,,,0.53,0,Wunderground v.1.15,2013-02-23 03:18:00,
2013-02-22 22:23:00,45.8,44.4,30.09,NW,315,0.0,1.0,95,0.00,,,0.53,0,Wunderground v.1.15,2013-02-23 03:23:00,
2013-02-22 22:28:00,45.8,44.4,30.09,NW,315,0.0,1.0,95,0.00,,,0.53,0,Wunderground v.1.15,2013-02-23 03:28:00,
2013-02-22 22:34:00,45.8,44.4,30.12,NW,304,0.0,3.0,95,0.00,,,0.53,0,Wunderground v.1.15,2013-02-23 03:34:00,
2013-02-22 22:39:00,45.8,44.4,30.14,WNW,290,6.0,6.0,95,0.00,,,0.53,0,Wunderground v.1.15,2013-02-23 03:39:00,
2013-02-22 22:44:00,45.9,44.5,30.14,WSW,254,0.0,5.0,95,0.00,,,0.53,0,Wunderground v.1.15,2013-02-23 03:44:00,
2013-02-22 22:49:00,46.0,44.6,30.14,SSW,201,1.0,5.0,95,0.00,,,0.53,0,Wunderground v.1.15,2013-02-23 03:49:00,
2013-02-22 22:54:00,46.1,44.7,30.12,SSE,147,4.0,5.0,95,0.00,,,0.53,0,Wunderground v.1.15,2013-02-23 03:54:00,
2013-02-22 22:59:00,46.2,44.8,30.12,SE,134,5.0,9.0,95,0.00,,,0.53,0,Wunderground v.1.15,2013-02-23 03:59:00,
2013-02-22 23:04:00,46.3,44.9,30.11,ESE,107,0.0,6.0,95,0.00,,,0.54,0,Wunderground v.1.15,2013-02-23 04:04:00,
2013-02-22 23:09:00,46.4,45.0,30.12,West,268,1.0,6.0,95,0.08,,,0.55,0,Wunderground v.1.15,2013-02-23 04:09:00,
2013-02-22 23:14:00,46.4,45.0,30.11,West,275,0.0,2.0,95,0.16,,,0.56,0,Wunderground v.1.15,2013-02-23 04:14:00,
2013-02-22 23:19:00,46.4,45.0,30.11,ESE,118,0.0,2.0,95,0.24,,,0.58,0,Wunderground v.1.15,2013-02-23 04:19:00,
2013-02-22 23:24:00,46.3,44.9,30.10,ESE,109,2.0,2.0,95,0.11,,,0.59,0,Wunderground v.1.15,2013-02-23 04:24:00,
2013-02-22 23:29:00,46.1,45.0,30.09,SE,134,1.0,6.0,96,0.09,,,0.59,0,Wunderground v.1.15,2013-02-23 04:29:00,
2013-02-22 23:34:00,46.1,45.0,30.08,SE,136,5.0,7.0,96,0.06,,,0.60,0,Wunderground v.1.15,2013-02-23 04:34:00,
2013-02-22 23:39:00,46.1,45.0,30.08,East,82,1.0,7.0,96,0.06,,,0.60,0,Wunderground v.1.15,2013-02-23 04:39:00,
2013-02-22 23:44:00,46.0,44.9,30.08,NNE,22,0.0,3.0,96,0.05,,,0.60,0,Wunderground v.1.15,2013-02-23 04:44:00,
2013-02-22 23:49:00,45.9,44.8,30.08,NNE,22,0.0,3.0,96,0.00,,,0.60,0,Wunderground v.1.15,2013-02-23 04:49:00,
2013-02-22 23:54:00,45.8,44.7,30.07,East,81,2.0,2.0,96,0.00,,,0.60,0,Wunderground v.1.15,2013-02-23 04:54:00,
2013-02-22 23:59:00,45.7,44.6,30.07,East,81,0.0,2.0,96,0.00,,,0.60,0,Wunderground v.1.15,2013-02-23 04:59:00,